Change the Weather History Date:

Saturday, November 16, 2013

  Actual Average Record
Temperature  
Mean Temperature 68 °F -  
Max Temperature 80 °F 57 °F 80 °F (2013)
Min Temperature 55 °F 38 °F 17 °F (2014)
Cooling Degree Days 2    
Growing Degree Days 18 (Base 50)    
Moisture  
Dew Point 45 °F    
Average Humidity 49    
Maximum Humidity 74    
Minimum Humidity 27    
Precipitation  
Precipitation 0.00 in - - ()
Sea Level Pressure  
Sea Level Pressure 29.56 in    
Wind  
Wind Speed 19 mph (SSW)    
Max Wind Speed 31 mph    
Max Gust Speed 43 mph    
Visibility 10 miles    
Events      
Averages and records for this station are not official NWS values.
T = Trace of Precipitation, MM = Missing Value Source: NWS Daily Summary

Daily Weather History Graph

Daily Weather History Graph

Search for Another Location

Airport or City:

Trip Planner

Search our weather history database for the weather conditions in past years. The results will help you decide how hot, cold, wet, or windy it might be!

Date:

Astronomy

Nov. 16, 2013 Rise Set
Actual Time 7:13 AM CST 5:29 PM CST
Civil Twilight 6:46 AM CST 5:56 PM CST
Nautical Twilight 6:15 AM CST 6:27 PM CST
Astronomical Twilight 5:45 AM CST 6:57 PM CST
Moon 5:04 PM CST (11/16) 6:12 AM CST (11/16)
Length of Visible Light 11h 10m
Length of Day
10h 16m
Waxing Gibbous, 99% of the Moon is Illuminated
Nov 16
Waxing Gibbous
Nov 17
Full
Nov 25
Last Quarter
Dec 2
New
Dec 9
First Quarter

Hourly Weather History & Observations

Time (CST) Temp. Dew Point Humidity Pressure Visibility Wind Dir Wind Speed Gust Speed Precip Events Conditions
12:53 AM 55.9 °F 46.0 °F 69% 29.66 in 10.0 mi South 15.0 mph - N/A   Clear
1:53 AM 55.0 °F 46.9 °F 74% 29.65 in 10.0 mi South 12.7 mph - N/A   Clear
2:53 AM 57.0 °F 48.0 °F 72% 29.63 in 10.0 mi North - - N/A   Clear
3:53 AM 57.0 °F 48.0 °F 72% 29.62 in 10.0 mi South 18.4 mph - N/A   Clear
4:53 AM 57.9 °F 48.0 °F 70% 29.62 in 10.0 mi South 16.1 mph - N/A   Clear
5:53 AM 60.1 °F 48.0 °F 64% 29.60 in 10.0 mi South 20.7 mph - N/A   Clear
6:53 AM 59.0 °F 48.9 °F 69% 29.61 in 10.0 mi South 18.4 mph - N/A   Clear
7:53 AM 59.0 °F 50.0 °F 72% 29.62 in 10.0 mi South 18.4 mph - N/A   Clear
8:53 AM 61.0 °F 51.1 °F 70% 29.63 in 10.0 mi South 19.6 mph - N/A   Clear
9:53 AM 68.0 °F 52.0 °F 56% 29.62 in 10.0 mi SSW 24.2 mph 29.9 mph N/A   Clear
10:53 AM 71.1 °F 51.1 °F 49% 29.59 in 10.0 mi SSW 27.6 mph 35.7 mph N/A   Clear
11:53 AM 73.9 °F 51.1 °F 45% 29.57 in 10.0 mi South 25.3 mph 33.4 mph N/A   Clear
12:53 PM 78.1 °F 46.0 °F 32% 29.52 in 10.0 mi SSW 28.8 mph 42.6 mph N/A   Clear
1:53 PM 79.0 °F 46.9 °F 32% 29.49 in 10.0 mi SSW 31.1 mph 42.6 mph N/A   Clear
2:53 PM 78.1 °F 44.1 °F 30% 29.46 in 10.0 mi SSW 28.8 mph 41.4 mph N/A   Mostly Cloudy
3:53 PM 80.1 °F 43.0 °F 27% 29.45 in 10.0 mi SSW 28.8 mph 38.0 mph N/A   Partly Cloudy
4:53 PM 77.0 °F 44.1 °F 31% 29.47 in 10.0 mi SSW 21.9 mph - N/A   Partly Cloudy
5:53 PM 73.0 °F 41.0 °F 31% 29.47 in 10.0 mi SSW 12.7 mph - N/A   Mostly Cloudy
6:53 PM 69.1 °F 39.9 °F 35% 29.49 in 10.0 mi SSW 13.8 mph - N/A   Overcast
7:53 PM 68.0 °F 37.0 °F 32% 29.51 in 10.0 mi SSW 15.0 mph - N/A   Overcast
8:53 PM 64.0 °F 36.0 °F 35% 29.54 in 10.0 mi SSW 9.2 mph - N/A   Clear
9:53 PM 64.9 °F 37.0 °F 36% 29.53 in 10.0 mi SSW 12.7 mph - N/A   Clear
10:53 PM 66.0 °F 37.0 °F 34% 29.53 in 10.0 mi SSW 13.8 mph - N/A   Clear
11:53 PM 61.0 °F 41.0 °F 48% 29.54 in 10.0 mi SSW 15.0 mph - N/A   Clear